Regional Weather Roundup
Issued by NWS

Home | Current Version | Previous Version | Text Only | Print | Product List | Glossary On
Versions: 1 2 3 4 5 6 7 8 9 10 11 12 13 14 15 16 17 18 19 20 21 22 23 24 25 26 27 28 29 30 31 32 33 34 35 36 37 38 39 40 41 42 43 44 45 46 47 48 49 50
000
ASUS44 KFWD 220610
RWRTX
NORTH TEXAS HOURLY WEATHER ROUNDUP
NATIONAL WEATHER SERVICE FORT WORTH TX
100 AM CDT MON SEP 22 2014

NOTE: "FAIR" INDICATES FEW OR NO CLOUDS BELOW 12,000 FEET WITH NO
SIGNIFICANT WEATHER AND/OR OBSTRUCTIONS TO VISIBILITY.

TXZ118-119-220700-
DALLAS/FORT WORTH METROPLEX

CITY           SKY/WX    TMP DP  RH WIND       PRES   REMARKS
DFW AIRPORT    MOCLDY    79  68  69 NE7       30.10S
6HR MIN TEMP:  79; 6HR MAX TEMP:  91;

DALLAS LOVE    MOCLDY    79  69  71 NE14      30.10R
6HR MIN TEMP:  79; 6HR MAX TEMP:  91;

FTW MEACHAM    PTCLDY    79  68  69 NE12      30.10R
6HR MIN TEMP:  79; 6HR MAX TEMP:  90;

DAL-EXECUTIVE  PTCLDY    81  69  67 NE13      30.10R
6HR MIN TEMP:  81; 6HR MAX TEMP:  91;

FTW-ALLIANCE   MOCLDY    77  68  73 NE10      30.11S
6HR MIN TEMP:  77; 6HR MAX TEMP:  90;

FTW-NAS-JRB    PTCLDY    83  67  58 NE12      30.14R
6HR MIN TEMP:  83; 6HR MAX TEMP:  93;

FTW-SPINKS     CLEAR     70  64  80 CALM      30.11S
6HR MIN TEMP:  70; 6HR MAX TEMP:  87;

ARLINGTON      CLEAR     82  66  58 NE14      30.09S
6HR MIN TEMP:  74; 6HR MAX TEMP:  91;

GRAND PRAIRIE  PTCLDY    80  67  64 N12G20    30.11S
6HR MIN TEMP:  80; 6HR MAX TEMP:  91;

ADDISON        MOCLDY    79  66  64 E7        30.13R
6HR MIN TEMP:  79; 6HR MAX TEMP:  91;

MESQUITE       PTCLDY    78  69  73 N6        30.10S
6HR MIN TEMP:  78; 6HR MAX TEMP:  90;

LANCASTER      PTCLDY    79  67  65 NE8       30.10S
6HR MIN TEMP:  77; 6HR MAX TEMP:  90;

$$

TXZ091>094-102>105-117-120-121-131>134-220700-
NORTH CENTRAL TEXAS

CITY           SKY/WX    TMP DP  RH WIND       PRES   REMARKS
SHRMAN/DENISON PTCLDY    74  57  55 NE13      30.15F
6HR MIN TEMP:  74; 6HR MAX TEMP:  87;

GAINESVILLE    MOCLDY    73  60  64 N7        30.17S
6HR MIN TEMP:  73; 6HR MAX TEMP:  87;

BOWIE          MOCLDY    73  64  73 NE3       30.16R
6HR MIN TEMP:  73; 6HR MAX TEMP:  87;

BRIDGEPORT     MOCLDY    74  64  70 E6        30.15S
6HR MIN TEMP:  73; 6HR MAX TEMP:  88;

DECATUR        MOCLDY    73  65  74 NE13      30.14S
6HR MIN TEMP:  73; 6HR MAX TEMP:  86;

DENTON         MOCLDY    76  68  76 NE9       30.13R
6HR MIN TEMP:  76; 6HR MAX TEMP:  89;

MCKINNEY       MOCLDY    76  65  68 NE9       30.11S
6HR MIN TEMP:  76; 6HR MAX TEMP:  89;

GREENVILLE     PTCLDY    77  68  73 N6        30.11S
ROCKWALL       PTCLDY    77  70  79 NE8       30.10S
6HR MIN TEMP:  77; 6HR MAX TEMP:  87;

TERRELL        PTCLDY    79  72  79 NE9       30.10S
6HR MIN TEMP:  78; 6HR MAX TEMP:  91;

WAXAHACHIE     PTCLDY    78  61  54 NE6       30.11R
6HR MIN TEMP:  75; 6HR MAX TEMP:  89;

CLEBURNE       CLEAR     77  63  61 CALM      30.11S
GRANBURY       PTCLDY    74  64  72 NW3       30.12R
6HR MIN TEMP:  73; 6HR MAX TEMP:  90;

$$

TXZ083>090-098>101-113>116-127>130-139>142-154-155-220700-
WESTERN NORTH TEXAS

CITY           SKY/WX    TMP DP  RH WIND       PRES   REMARKS
WICHITA FALLS  MOCLDY    72  59  63 NE10      30.16S
6HR MIN TEMP:  72; 6HR MAX TEMP:  89;

WF-KICKAPOO    MOCLDY    72  62  71 NE7       30.17S
6HR MIN TEMP:  72; 6HR MAX TEMP:  89;

VERNON         MOCLDY    71  58  64 NE10      30.19F
6HR MIN TEMP:  71; 6HR MAX TEMP:  94; 6HR PCP:  0.50;

ABILENE        MOCLDY    74  67  78 CALM      30.16S
6HR MIN TEMP:  74; 6HR MAX TEMP:  86;

ABILENE-DYESS  MOCLDY    72  62  69 CALM      30.15S
6HR MIN TEMP:  72; 6HR MAX TEMP:  84;

BRECKENRIDGE   CLOUDY    78  61  55 E7        30.13S
6HR MIN TEMP:  77; 6HR MAX TEMP:  90;

GRAHAM         MOCLDY    76  67  72 NE6       30.13R
6HR MIN TEMP:  76; 6HR MAX TEMP:  88;

MINERAL WELLS  PTCLDY    76  63  64 N6        30.11S
6HR MIN TEMP:  74; 6HR MAX TEMP:  88;

STEPHENVILLE   MOCLDY    73  61  65 CALM      30.15S
6HR MIN TEMP:  73; 6HR MAX TEMP:  86;

COMANCHE       MOCLDY    75  63  65 CALM      30.14R
6HR MIN TEMP:  74; 6HR MAX TEMP:  85;

BROWNWOOD      MOCLDY    72  68  88 CALM      30.13F
COLEMAN        MOCLDY    73  67  82 CALM      30.15F
6HR MIN TEMP:  73; 6HR MAX TEMP:  83;

BRADY          CLEAR     73  63  68 CALM      30.15S
$$

TXZ143>147-156>162-174-175-220700-
CENTRAL TEXAS

CITY           SKY/WX    TMP DP  RH WIND       PRES   REMARKS
WACO           MOCLDY    72  66  81 CALM      30.07F
6HR MIN TEMP:  71; 6HR MAX TEMP:  89;

WACO-MCGREGOR  PTCLDY    73  61  64 W6        30.09S
6HR MIN TEMP:  72; 6HR MAX TEMP:  90;

HILLSBORO      CLEAR     74  59  59 CALM      30.09S
6HR MIN TEMP:  74; 6HR MAX TEMP:  90;

CORSICANA      CLEAR     75  65  70 CALM      30.08S
6HR MIN TEMP:  75; 6HR MAX TEMP:  89;

MEXIA          PTCLDY    73  66  79 CALM      30.07S
6HR MIN TEMP:  73; 6HR MAX TEMP:  85;

HEARNE         PTCLDY    72  69  92 CALM      30.06S
6HR MIN TEMP:  72; 6HR MAX TEMP:  86;

CAMERON        PTCLDY    73  68  83 CALM      30.07S
6HR MIN TEMP:  73; 6HR MAX TEMP:  86;

TEMPLE         CLEAR     72  64  78 NW3       30.08S
6HR MIN TEMP:  72; 6HR MAX TEMP:  86;

KILLEEN        CLEAR     75  64  69 CALM      30.10S
KILLEEN-SKYLRK CLEAR     70  63  78 CALM      30.09S
6HR MIN TEMP:  70; 6HR MAX TEMP:  84;

FORT HOOD      CLEAR     75  66  73 CALM      30.10S
6HR MIN TEMP:  74; 6HR MAX TEMP:  87;

GATESVILLE     PTCLDY    72  64  78 CALM      30.12S
HAMILTON       MOCLDY    74  62  65 SW5       30.13S
6HR MIN TEMP:  74; 6HR MAX TEMP:  86;

LAMPASAS       PTCLDY    71  67  87 W3        30.11S
6HR MIN TEMP:  71; 6HR MAX TEMP:  84;

$$

TXZ095>097-106>112-122>126-135>138-148>153-164>167-220700-
EAST TEXAS

CITY           SKY/WX    TMP DP  RH WIND       PRES   REMARKS
PARIS          CLOUDY    73  64  73 N6        30.13R
6HR MIN TEMP:  73; 6HR MAX TEMP:  84;

SULPHUR SPRNGS PTCLDY    76  69  79 N5        30.13S
6HR MIN TEMP:  76; 6HR MAX TEMP:  88;

MOUNT PLEASANT MOCLDY    76  69  78 N5        30.11R
6HR MIN TEMP:  76; 6HR MAX TEMP:  86;

GILMER         CLEAR     77  72  83 NW5       30.10R
MINEOLA        PTCLDY    77  70  78 CALM      30.10S
TYLER          CLEAR     75  69  81 N5        30.08R
6HR MIN TEMP:  75; 6HR MAX TEMP:  87;

LONGVIEW       CLEAR     76  68  76 NE5       30.06R
6HR MIN TEMP:  73; 6HR MAX TEMP:  88;

MARSHALL       CLEAR     78  71  77 NE3       30.09R
6HR MIN TEMP:  76; 6HR MAX TEMP:  89;

ATHENS         CLEAR     70  64  83 CALM      30.07S
PALESTINE      CLEAR     73  68  86 CALM      30.07S
JACKSONVILLE   CLEAR     79  66  65 N3        30.09S
HENDERSON      CLEAR     71  69  92 CALM      30.07S
6HR MIN TEMP:  71; 6HR MAX TEMP:  85;

NACOGDOCHES    PTCLDY    72  68  88 CALM      30.05S
6HR MIN TEMP:  72; 6HR MAX TEMP:  88;

LUFKIN         PTCLDY    76  71  85 CALM      30.04S
6HR MIN TEMP:  75; 6HR MAX TEMP:  88;

$$

SUPPLEMENTAL OBSERVATIONS (CENTRAL)

CITY           SKY/WX    TMP DP  RH WIND       PRES   REMARKS
CADDO GRASSLND   N/A     72  64  78 VRB2        N/A
PAT MAYSE LAKE   N/A     72  66  83 N2          N/A
GREENVILLE       N/A     75  70  83 NE6         N/A
PALESTINE        N/A     70  66  88 CALM        N/A
MCGREGOR         N/A     70  64  83 SW1         N/A
TEMPLE           N/A     77  64  65 W5          N/A



USA.gov is the U.S. government's official web portal to all federal, state and local government web resources and services.